{"data":{"norad_id":63902,"epoch":"2026-09-19T23:05:37.349376Z","epoch_age_seconds":193524,"freshness":"STALE","line1":"1 63902U 25095N   26262.96223784  .00015206  00000+0  56068-3 0  9991","line2":"2 63902  43.0011 158.6919 0000590 276.9776  83.1009 15.27595267 77495","mean_motion":15.27595267,"eccentricity":5.9e-5,"inclination_deg":43.0011,"raan_deg":158.6919,"arg_perigee_deg":276.9776,"mean_anomaly_deg":83.1009,"bstar":0.00056068,"rev_number":7749,"period_min":94.265806598627,"perigee_km":482.5985742476,"apogee_km":483.40818881262,"semimajor_km":6861.1403815301,"source":"CELESTRAK","updated_at":"2026-09-21T09:00:35.145369Z"}}